User: anonymous   Login
Location: Bacea
(45.9500°N, 22.6667°E)
Time: 23:18:01
(UTC+00:00)
Language:

Meteor 1-24 Rocket - Orbit

View from above orbital plane
View from above orbital plane
View from above satellite
View from above satellite

Ground track
Ground track

The orbit data is extracted from the following two-line orbital elements,

1 08800U 76032B   22017.52259703  .00000019  00000-0  28657-5 0  9992
2 08800  81.2496  27.3907 0094989 121.5101 239.5394 14.10176931354095
Epoch (UTC): 17 January 2022 12:32:32
Eccentricity: 0.0094989
inclination: 81.2496°
perigee height: 790 km
apogee height: 927 km
right ascension of ascending node: 27.3907°
argument of perigee: 121.5101°
revolutions per day: 14.10176931
mean anomaly at epoch: 239.5394°
orbit number at epoch: 35409

The dashed part of the orbit path shows where the satellite is in the earth's shadow,  

DLR